Flag for Greece Weather past 2 weeks in Glyfada, Greece

Now
41 °F

Passing clouds.


Feels Like: 38 °F
Forecast: 49 / 56 °F
Wind: 5 mph from Northwest

Location: Eleftherios Venizelos International Airport

Current Time: Jan 26, 2015 at 6:46:43 AM

Latest Report: Jan 26, 2015 at 5:50 AM


Visibility: N/A

Pressure: 29.98 "Hg

Humidity: 93%

Dew point: 39 °F

Location of GlyfadaLocation

Historic Weather in Glyfada — Graph

°F

Glyfada temperature yesterday

Maximum temperature yesterday: 61 °F (at 1:20 PM)
Minimum temperature yesterday: 46 °F (at 11:50 PM)
Average temperature yesterday: 54 °F

Past Weeks' High & Low Weather Summary

 TemperatureHumidityPressure
High68 °F (Jan 11, 11:50 AM)94% (Jan 21, 11:50 PM)30.33 "Hg (Jan 21, 11:50 PM)
Low34 °F (Jan 14, 11:50 PM)31% (Jan 15, 1:50 PM)29.68 "Hg (Jan 24, 5:20 AM)
Average52 °F70%30.05 "Hg
* Reported Jan 11 5:50 AM — Jan 26 5:20 AM, Glyfada, Weather by CustomWeather, © 2014

Note: Actual official high and low records may vary slightly from our data, if they occured in-between our weather recording intervals... More about our weather records

Advertising

Glyfada weather history for previous 24 hours

 ConditionsComfort  
Time TempWeatherWind HumidityBarometerVisibility
5:20 AM
Jan 26
41 °FPassing clouds.1 mph93%29.95 "HgN/A
4:50 AM43 °FPassing clouds.No wind93%29.95 "HgN/A
4:20 AM41 °FPassing clouds.2 mph93%29.95 "HgN/A
3:50 AM43 °FPassing clouds.1 mph93%29.95 "HgN/A
3:20 AM43 °FPassing clouds.3 mph93%29.95 "HgN/A
2:50 AM43 °FPassing clouds.3 mph93%29.95 "HgN/A
2:20 AM46 °FPassing clouds.No wind87%29.92 "HgN/A
1:50 AM45 °FPassing clouds.No wind93%29.92 "HgN/A
1:20 AM46 °FPassing clouds.No wind93%29.92 "HgN/A
12:50 AM48 °FPassing clouds.1 mph94%29.92 "HgN/A
12:20 AM46 °FPassing clouds.1 mph93%29.89 "HgN/A
11:50 PM
Jan 25
46 °FPassing clouds.1 mph93%29.89 "HgN/A
11:20 PM48 °FPassing clouds.2 mph94%29.89 "HgN/A
10:50 PM48 °FPassing clouds.3 mph94%29.86 "HgN/A
10:20 PM50 °FPartly cloudy.5 mph82%29.86 "HgN/A
9:50 PM52 °FPartly cloudy.5 mph82%29.86 "HgN/A
9:20 PM52 °FPassing clouds.2 mph82%29.86 "HgN/A
8:50 PM52 °FPassing clouds.5 mph82%29.86 "HgN/A
8:20 PM52 °FPassing clouds.1 mph82%29.86 "HgN/A
7:50 PM52 °FPassing clouds.2 mph82%29.86 "HgN/A
7:20 PM52 °FPassing clouds.3 mph82%29.83 "HgN/A
6:50 PM54 °FPassing clouds.3 mph77%29.83 "HgN/A
6:20 PM54 °FPassing clouds.2 mph77%29.83 "HgN/A
5:50 PM54 °FPassing clouds.2 mph77%29.83 "HgN/A
5:20 PM54 °FLight rain. Scattered clouds.1 mph82%29.83 "HgN/A
4:50 PM54 °FThunderstorms. Passing clouds.3 mph77%29.80 "Hg4 mi
4:20 PM57 °FThunderstorms. Partly sunny.2 mph72%29.80 "HgN/A
3:50 PM57 °FThunderstorms. Scattered clouds.6 mph72%29.80 "HgN/A
3:20 PM59 °FScattered clouds.9 mph68%29.80 "HgN/A
2:50 PM59 °FScattered clouds.12 mph63%29.80 "HgN/A
2:20 PM59 °FScattered clouds.12 mph63%29.80 "HgN/A
1:50 PM61 °FScattered clouds.13 mph59%29.80 "HgN/A
1:20 PM61 °FScattered clouds.13 mph63%29.80 "HgN/A
12:50 PM59 °FScattered clouds.12 mph68%29.80 "HgN/A
12:20 PM59 °FScattered clouds.12 mph68%29.80 "HgN/A
11:50 AM59 °FScattered clouds.12 mph63%29.80 "HgN/A
11:20 AM59 °FScattered clouds.10 mph68%29.80 "HgN/A
10:50 AM57 °FScattered clouds.13 mph72%29.80 "HgN/A
10:20 AM57 °FScattered clouds.12 mph72%29.80 "HgN/A
9:50 AM55 °FScattered clouds.7 mph77%29.80 "HgN/A
9:20 AM55 °FScattered clouds.9 mph77%29.80 "HgN/A
8:50 AM54 °FScattered clouds.3 mph82%29.77 "HgN/A
8:20 AM54 °FScattered clouds.5 mph77%29.77 "HgN/A
7:50 AM54 °FScattered clouds.6 mph77%29.77 "HgN/A
7:20 AM52 °FPassing clouds.7 mph82%29.77 "HgN/A
6:50 AM52 °FPartly cloudy.7 mph77%29.74 "HgN/A
6:20 AM52 °FPartly cloudy.10 mph82%29.74 "HgN/A
Weather by CustomWeather, © 2014

See weather overviewHow to use our weather pages